Location: Aufkirchen
(47.9603°N, 11.3653°E)
Time: 17:28:21
(UTC+01:00)

Transit 4A - Pass Details

Date: 27 November 2020
Orbit: 864 x 980 km, 66.8° (Epoch: 26 January)

Event Time Altitude Azimuth Distance (km) Brightness Sun altitude
Rises 15:44:53 0° 325° (NW) 3,690 11.0 4.7°
Reaches altitude 10° 15:47:43 10° 334° (NNW) 2,735 10.2 4.4°
Maximum altitude 15:53:34 36° 40° (NE) 1,487 8.6 3.6°
Drops below altitude 10° 15:59:18 10° 106° (ESE) 2,676 10.0 2.8°
Sets 16:02:02 0° 115° (ESE) 3,601 10.7 2.5°
